Location: Eisingen in Unterfranken
(49.7591°N, 9.8347°E)
Time: 07:58:49
(UTC+01:00)

Envisat - Pass Details

Date: 05 December 2022
Orbit: 763 x 765 km, 98.2° (Epoch: 04 February)

Event Time Altitude Azimuth Distance (km) Brightness Sun altitude
Rises 05:43:42 0° 7° (N) 3,247 6.2 -21.2°
Reaches altitude 10° 05:46:12 10° 358° (N) 2,316 5.4 -20.8°
Enters shadow 05:48:45 25° 335° (NNW) 1,534 4.2 -20.4°
